Location: Colorado Springs
(38.8340°N, 104.8210°W)
Time: 01:39:16
(UTC-06:00)

Envisat - Pass Details

Date: 08 October 2017
Orbit: 764 x 766 km, 98.2° (Epoch: 17 October)

Event Time Altitude Azimuth Distance (km) Brightness Sun altitude
Exits shadow 22:01:51 17° 288° (WNW) 1,851 5.5 -40.7°
Drops below altitude 10° 22:04:03 10° 312° (NW) 2,307 6.1 -41.0°
Sets 22:07:02 0° 330° (NNW) 3,238 6.9 -41.5°
